Flag for China Weather past 2 weeks in Zhengzhou, Henan, China

Now
63 °F

Clear.


Feels Like: 63 °F
Forecast: 64 / 86 °F
Wind: 1 mph from North

Location: Zhengzhou Airport

Current Time: Apr 27, 2015 at 5:27:02 AM

Latest Report: Apr 27, 2015 at 5:00 AM


Visibility: 5 mi

Pressure: 29.80 "Hg

Humidity: 77%

Dew point: 55 °F

Location of ZhengzhouLocation

Historic Weather in Zhengzhou — Graph

°F

Zhengzhou temperature yesterday

Maximum temperature yesterday: 81 °F (at 1:00 PM)
Minimum temperature yesterday: 61 °F (at 1:00 AM)
Average temperature yesterday: 71 °F

Past Weeks' High & Low Weather Summary

 TemperatureHumidityPressure
High82 °F (Apr 15, 2:00 PM)94% (Apr 18, 6:00 PM)30.36 "Hg (Apr 18, 6:00 PM)
Low43 °F (Apr 13, 3:00 AM)11% (Apr 12, 6:00 PM)29.62 "Hg (Apr 15, 3:00 PM)
Average63 °F54%29.99 "Hg
* Reported Apr 12 4:00 AM — Apr 27 4:00 AM, Zhengzhou, Weather by CustomWeather, © 2015

Note: Actual official high and low records may vary slightly from our data, if they occured in-between our weather recording intervals... More about our weather records

Advertising

Zhengzhou weather history for previous 24 hours

 ConditionsComfort  
Time TempWeatherWind HumidityBarometerVisibility
4:00 AM
Mon, Apr 27
66 °FClear.1 mph68%29.77 "Hg10 mi
3:00 AM66 °FClear.1 mph68%29.77 "Hg10 mi
2:00 AM68 °FClear.6 mph60%29.83 "Hg4 mi
1:00 AM68 °FHaze.No wind73%29.86 "Hg2 mi
12:00 AM68 °FHaze.3 mph69%29.86 "Hg2 mi
11:00 PM
Sun, Apr 26
68 °FHaze.1 mph69%29.86 "Hg3 mi
10:00 PM70 °FClear.6 mph64%29.86 "Hg4 mi
9:00 PM70 °FClear.3 mph64%29.86 "Hg4 mi
8:00 PM72 °FClear.3 mph61%29.86 "Hg4 mi
7:00 PM73 °FSunny.3 mph57%29.86 "Hg10 mi
6:00 PM75 °FPassing clouds.6 mph54%29.86 "HgN/A
5:00 PM79 °FPassing clouds.8 mph42%29.86 "HgN/A
4:00 PM79 °FPassing clouds.6 mph42%29.86 "HgN/A
3:00 PM81 °FPassing clouds.8 mph39%29.89 "HgN/A
2:00 PM81 °FPassing clouds.8 mph42%29.92 "HgN/A
1:00 PM81 °FPassing clouds.8 mph37%29.95 "HgN/A
12:00 PM79 °FClear.8 mph42%29.98 "Hg5 mi
11:00 AM77 °FClear.8 mph42%29.98 "Hg5 mi
10:00 AM75 °FClear.8 mph47%30.01 "Hg4 mi
9:00 AM72 °FHaze.6 mph53%30.01 "Hg2 mi
8:00 AM66 °FHaze.6 mph60%30.01 "Hg2 mi
7:00 AM64 °FHaze.3 mph64%29.98 "Hg2 mi
6:00 AM61 °FHaze.3 mph68%29.98 "Hg3 mi
5:00 AM61 °FHaze.3 mph68%29.98 "Hg3 mi
Weather by CustomWeather, © 2015

See weather overviewHow to use our weather pages